This demonstration page uses our WeatherBlox Daily Observations layout. Learn more.

Left ArrowRight Arrow

Hourly Observations for April 13, 2015

Temp ( °F °C ) Dew Point ( °F °C ) Humidity (%) Winds ( mph kmh ) Pressure ( in mb ) Visibility ( mi km ) Precip ( " mm )
12:16 am 00:16 Clear 57 14 28 -2 33 33 SSE 3 6 30.03 1017 10 16.0934 N/A
12:36 am 00:36 Clear 57 14 28 -2 33 33 SSE 5 7 30.03 1017 10 16.0934 N/A
12:55 am 00:55 Clear 57 14 28 -2 33 33 SE 6 9 30.03 1017 10 16.0934 N/A
1:16 am 01:16 Clear 57 14 28 -2 33 33 SSE 6 9 30.03 1017 10 16.0934 N/A
1:36 am 01:36 Clear 55 13 30 -1 38 38 SSE 7 11 30.03 1017 10 16.0934 N/A
1:55 am 01:55 Clear 57 14 28 -2 33 33 SSE 7 11 30.03 1017 10 16.0934 N/A
2:16 am 02:16 Clear 59 15 28 -2 31 31 S 7 11 30.03 1017 10 16.0934 N/A
2:36 am 02:36 Clear 59 15 27 -3 29 29 S 8 13 30.03 1017 10 16.0934 N/A
2:55 am 02:55 Clear 57 14 28 -2 33 33 S 8 13 30.03 1017 10 16.0934 N/A
3:16 am 03:16 Clear 57 14 28 -2 33 33 S 8 13 30.03 1017 10 16.0934 N/A
3:36 am 03:36 Clear 57 14 28 -2 33 33 S 9 15 30.03 1017 10 16.0934 N/A
3:56 am 03:56 Clear 57 14 30 -1 36 36 S 9 15 30.03 1017 10 16.0934 N/A
4:16 am 04:16 Clear 57 14 30 -1 36 36 S 9 15 30.03 1017 10 16.0934 N/A
4:36 am 04:36 Clear 57 14 30 -1 36 36 S 8 13 30.03 1017 10 16.0934 N/A
4:56 am 04:56 Clear 55 13 30 -1 38 38 S 9 15 30 1016 10 16.0934 N/A
5:16 am 05:16 Clear 55 13 32 0 41 41 S 7 11 30.03 1017 10 16.0934 N/A
5:36 am 05:36 Clear 55 13 32 0 41 41 S 9 15 30.03 1017 10 16.0934 N/A
5:56 am 05:56 Clear 57 14 32 0 39 39 S 9 15 30.03 1017 10 16.0934 N/A
6:16 am 06:16 Clear 57 14 34 1 41 41 S 9 15 30.03 1017 10 16.0934 N/A
6:36 am 06:36 Clear 57 14 34 1 41 41 S 10 17 30.03 1017 10 16.0934 N/A
6:56 am 06:56 Clear 57 14 36 2 44 44 S 9 15 30.03 1017 10 16.0934 N/A
7:16 am 07:16 Sunny 57 14 37 3 48 48 S 9 15 30.03 1017 10 16.0934 N/A
7:36 am 07:36 Sunny 57 14 39 4 51 51 S 8 13 30.06 1018 10 16.0934 N/A
7:56 am 07:56 Sunny 57 14 41 5 55 55 S 8 13 30.06 1018 10 16.0934 N/A
8:16 am 08:16 Sunny 57 14 43 6 59 59 S 8 13 30.06 1018 10 16.0934 N/A
8:36 am 08:36 Sunny 61 16 45 7 55 55 S 10 17 30.06 1018 10 16.0934 N/A
8:56 am 08:56 Sunny 61 16 46 8 59 59 S 13 20 30.06 1018 10 16.0934 N/A
9:16 am 09:16 Sunny 63 17 48 9 59 59 S 13 20 30.06 1018 10 16.0934 N/A
9:36 am 09:36 Sunny 64 18 48 9 56 56 S 14 22 30.03 1017 10 16.0934 N/A
9:56 am 09:56 Partly Cloudy 68 20 50 10 53 53 S 17 28 30.03 1017 10 16.0934 N/A
10:16 am 10:16 Partly Cloudy 68 20 52 11 56 56 SSW 20 31 30.03 1017 10 16.0934 N/A
10:35 am 10:35 Partly Cloudy 68 20 50 10 53 53 SSW 17 28 30.03 1017 10 16.0934 N/A
10:56 am 10:56 Mostly Cloudy 68 20 52 11 56 56 SSW 15 24 30.03 1017 10 16.0934 N/A
11:16 am 11:16 Mostly Cloudy 70 21 52 11 53 53 SSW 18 30 30 1016 10 16.0934 N/A
11:35 am 11:35 Cloudy 70 21 52 11 53 53 SSW 17 28 30 1016 10 16.0934 N/A
11:56 am 11:56 Mostly Cloudy 70 21 52 11 53 53 SSW 17 28 30.06 1018 10 16.0934 N/A
12:16 pm 12:16 Cloudy 70 21 52 11 53 53 SSW 17 28 30.06 1018 10 16.0934 N/A
12:35 pm 12:35 Mostly Cloudy 70 21 52 11 53 53 SW 16 26 30.06 1018 10 16.0934 N/A
12:56 pm 12:56 Cloudy 70 21 52 11 53 53 WSW 10 17 30 1016 10 16.0934 N/A
1:16 pm 13:16 Mostly Cloudy 66 19 54 12 64 64 W 18 30 30.06 1018 10 16.0934 N/A
1:36 pm 13:36 Mostly Cloudy 64 18 54 12 68 68 W 13 20 30.06 1018 10 16.0934 N/A
1:56 pm 13:56 Mostly Cloudy 68 20 54 12 60 60 W 12 19 30.03 1017 10 16.0934 N/A
2:16 pm 14:16 Mostly Cloudy 68 20 54 12 60 60 W 12 19 30.03 1017 10 16.0934 N/A
2:36 pm 14:36 Partly Cloudy 70 21 54 12 57 57 WSW 14 22 30 1016 10 16.0934 N/A
2:56 pm 14:56 Partly Cloudy 68 20 52 11 56 56 W 21 33 30.06 1018 10 16.0934 N/A
3:15 pm 15:15 Mostly Cloudy 64 18 63 17 94 94 W 10 17 30.06 1018 7 11.26538 N/A
3:36 pm 15:36 Mostly Cloudy 64 18 N/A N/A W 9 15 30.06 1018 5 8.0467 N/A
3:56 pm 15:56 Cloudy 64 18 N/A N/A WNW 12 19 30.06 1018 7 11.26538 N/A
4:15 pm 16:15 Cloudy 63 17 55 13 77 77 WNW 10 17 30.06 1018 10 16.0934 N/A
4:36 pm 16:36 Mostly Cloudy 63 17 55 13 77 77 WNW 9 15 30.06 1018 10 16.0934 N/A
4:56 pm 16:56 Cloudy 63 17 55 13 77 77 WNW 9 15 30.06 1018 10 16.0934 N/A
5:15 pm 17:15 Cloudy 63 17 54 12 73 73 NW 8 13 30.06 1018 10 16.0934 N/A
5:36 pm 17:36 Cloudy 63 17 52 11 68 68 NW 10 17 30.06 1018 10 16.0934 N/A
5:56 pm 17:56 Cloudy 63 17 54 12 73 73 NW 8 13 30.06 1018 10 16.0934 N/A
6:15 pm 18:15 Partly Cloudy 63 17 54 12 73 73 NW 8 13 30.06 1018 10 16.0934 N/A
6:36 pm 18:36 Sunny 63 17 50 10 64 64 NW 10 17 30.06 1018 10 16.0934 N/A
6:56 pm 18:56 Sunny 63 17 50 10 64 64 NW 5 7 30.09 1019 10 16.0934 N/A
7:15 pm 19:15 Sunny 63 17 48 9 59 59 NNW 7 11 30.09 1019 10 16.0934 N/A
7:36 pm 19:36 Sunny 61 16 48 9 63 63 NNW 8 13 30.09 1019 10 16.0934 N/A
7:56 pm 19:56 Sunny 61 16 39 4 45 45 NNW 10 17 30.09 1019 10 16.0934 N/A
8:16 pm 20:16 Sunny 61 16 39 4 45 45 NNW 8 13 30.09 1019 10 16.0934 N/A
8:36 pm 20:36 Clear 59 15 39 4 48 48 NNW 7 11 30.09 1019 10 16.0934 N/A
8:56 pm 20:56 Clear 57 14 41 5 55 55 NNW 7 11 30.12 1020 10 16.0934 N/A
9:16 pm 21:16 Clear 57 14 41 5 55 55 N 8 13 30.09 1019 10 16.0934 N/A
9:36 pm 21:36 Clear 57 14 41 5 55 55 N 8 13 30.12 1020 10 16.0934 N/A
9:56 pm 21:56 Clear 55 13 41 5 59 59 NNW 6 9 30.12 1020 10 16.0934 N/A
10:16 pm 22:16 Clear 55 13 39 4 55 55 N 9 15 30.12 1020 10 16.0934 N/A
10:36 pm 22:36 Clear 57 14 36 2 44 44 N 9 15 30.12 1020 10 16.0934 N/A
10:55 pm 22:55 Clear 55 13 34 1 44 44 N 9 15 30.12 1020 10 16.0934 N/A
11:16 pm 23:16 Clear 55 13 34 1 44 44 N 8 13 30.12 1020 10 16.0934 N/A
11:36 pm 23:36 Clear 55 13 34 1 44 44 NNW 9 15 30.15 1021 10 16.0934 N/A
11:55 pm 23:55 Clear 55 13 32 0 41 41 N 9 15 30.15 1021 10 16.0934 N/A

Powered by AerisWeather